Location: Astronomy Club of Akron Observatory
(40.9700°N, 81.5606°W)
Time: 20:20:46
(UTC-04:00)

ATLAS 2AS CENTAUR R/B - Visible Passes

Search period start: 29 May 2015 00:00
Search period end: 08 June 2015 00:00
Orbit: 912 x 1300 km, 63.7° (Epoch: 29 May)

Date Brightness Start Highest point End Pass type
(mag) Time Alt. Az. Time Alt. Az. Time Alt. Az.
29 May 5.9 00:08:06 10° NW 00:12:30 15° NNW 00:16:52 10° NNE visible
29 May 5.9 02:02:55 10° NNW 02:07:13 15° NNE 02:11:40 10° NE visible
29 May 4.8 03:53:47 10° NNW 04:01:01 35° NE 04:08:11 10° ESE visible
29 May 4.1 21:26:29 10° WSW 21:33:37 50° NW 21:41:18 10° NNE visible
29 May 5.7 23:21:35 10° WNW 23:26:47 18° NNW 23:31:59 10° NNE visible
30 May 6.0 01:17:41 10° NNW 01:21:24 14° N 01:25:13 10° NE visible
30 May 5.2 03:09:07 10° NNW 03:15:38 26° NNE 03:22:11 10° E visible
30 May 3.2 04:59:48 10° NNW 05:07:59 82° NE 05:15:48 10° SE visible
30 May 5.4 22:35:16 10° W 22:41:11 23° NNW 22:47:14 10° NNE visible
31 May 5.9 00:31:57 10° NNW 00:35:34 13° N 00:39:11 10° NNE visible
31 May 5.5 02:24:26 10° NNW 02:30:05 20° NNE 02:35:53 10° ENE visible
31 May 3.8 04:15:03 10° NNW 04:23:03 58° NE 04:30:46 10° SE visible
31 May 5.1 21:49:12 10° W 21:55:44 30° NW 22:02:33 10° NNE visible
31 May 5.9 23:45:43 10° NW 23:49:44 14° N 23:53:42 10° NNE visible
01 Jun 5.7 01:39:38 10° NNW 01:44:25 17° NNE 01:49:22 10° NE visible
01 Jun 4.4 03:30:21 10° NNW 03:37:56 42° NE 03:45:21 10° ESE visible
01 Jun 3.2 05:21:26 10° NW 05:29:18 55° WSW 05:36:44 10° S visible
01 Jun 5.8 22:59:14 10° NW 23:03:57 16° NNW 23:08:39 10° NNE visible
02 Jun 5.8 00:54:37 10° NNW 00:58:39 14° N 01:02:48 10° NE visible
02 Jun 4.8 02:45:41 10° NNW 02:52:39 31° NE 02:59:35 10° E visible
02 Jun 3.0 04:36:29 10° NW 04:44:38 81° WSW 04:52:23 10° SSE visible
02 Jun 5.6 22:12:48 10° WNW 22:18:17 20° NNW 22:23:50 10° NNE visible
03 Jun 5.8 00:09:13 10° NNW 00:12:49 13° N 00:16:29 10° NNE visible
03 Jun 5.2 02:01:01 10° NNW 02:07:11 24° NNE 02:13:27 10° E visible
03 Jun 3.3 03:51:39 10° NNW 03:59:48 72° NE 04:07:36 10° SE visible
03 Jun 5.4 21:26:33 10° W 21:32:45 26° NNW 21:39:07 10° NNE visible
03 Jun 5.8 23:23:16 10° NNW 23:26:59 14° N 23:30:41 10° NNE visible
04 Jun 5.5 01:16:18 10° NNW 01:21:36 19° NNE 01:27:03 10° ENE visible
04 Jun 3.9 03:06:55 10° NNW 03:14:47 51° NE 03:22:24 10° ESE visible
04 Jun 3.4 04:58:18 10° NW 05:05:48 42° WSW 05:12:52 10° S visible
04 Jun 5.7 22:36:53 10° NW 22:41:10 15° NNW 22:45:24 10° NNE visible
05 Jun 5.6 00:31:26 10° NNW 00:35:53 16° NNE 00:40:29 10° NE visible
05 Jun 4.5 02:22:15 10° NNW 02:29:36 37° NE 02:36:50 10° ESE visible
05 Jun 3.0 04:13:12 10° NW 04:21:13 64° WSW 04:28:48 10° SSE visible
05 Jun 5.6 21:50:23 10° WNW 21:55:26 18° NNW 22:00:28 10° NNE visible
05 Jun 5.6 23:46:17 10° NNW 23:50:05 14° N 23:53:59 10° NE visible
06 Jun 4.9 01:37:35 10° NNW 01:44:14 27° NNE 01:50:55 10° E visible
06 Jun 3.1 03:28:18 10° NW 03:36:29 88° NE 03:44:16 10° SSE visible
06 Jun 4.1 05:21:02 10° WNW 05:26:40 20° WSW 05:31:46 10° SSW visible
06 Jun 5.7 23:00:39 10° NNW 23:04:14 13° N 23:07:52 10° NNE visible
07 Jun 5.2 00:52:54 10° NNW 00:58:43 21° NNE 01:04:40 10° ENE visible
07 Jun 3.5 02:43:31 10° NNW 02:51:35 62° NE 02:59:19 10° SE visible
07 Jun 3.7 04:35:15 10° NW 04:42:16 33° WSW 04:48:48 10° S visible
07 Jun 5.6 22:14:30 10° NW 22:18:24 14° N 22:22:16 10° NNE visible
